FW8483 Weather Reports


time (UTC)temp
C
wind
direction
speed
KPH
gust
KPH
rain 1hr
cm
rain 24hr
cm
rain mn
cm
humidity
%
barometer
mb
20260507092503 23 223 4.8 11.3 0.00 0.00 0.00 90 1011.8
20260507092003 23 199 3.2 9.7 0.00 0.00 0.00 90 1011.9
20260507091514 23 211 3.2 9.7 0.00 0.00 0.00 90 1011.9
20260507091003 23 246 3.2 11.3 0.00 0.00 0.00 90 1011.9
20260507090504 23 204 4.8 12.9 0.00 0.00 0.00 90 1012.0
20260507090020 23 217 1.6 12.9 0.00 0.00 0.00 90 1012.1
20260507085506 23 247 1.6 8.0 0.00 0.00 0.00 90 1012.3
20260507085007 23 192 3.2 11.3 0.00 0.00 0.00 90 1012.3
20260507084532 23 237 0.0 11.3 0.00 0.00 0.00 90 1012.3
20260507084009 23 233 3.2 9.7 0.00 0.00 0.00 91 1012.3
20260507083508 23 284 1.6 17.7 0.00 0.00 0.00 91 1012.3
20260507083031 23 254 3.2 19.3 0.00 0.00 0.00 91 1012.3
20260507082507 23 165 3.2 19.3 0.00 0.00 0.00 91 1012.2
20260507082004 23 231 4.8 12.9 0.00 0.00 0.00 91 1012.3
20260507081515 23 257 3.2 12.9 0.00 0.00 0.00 91 1012.4
20260507081004 23 217 3.2 16.1 0.00 0.00 0.00 91 1012.4
20260507080506 23 188 6.4 16.1 0.00 0.00 0.00 91 1012.5
20260507080015 23 175 4.8 11.3 0.00 0.00 0.00 91 1012.4
20260507075503 23 173 3.2 12.9 0.00 0.00 0.00 91 1012.5
20260507075006 23 186 4.8 14.5 0.00 0.00 0.00 91 1012.4
20260507074537 23 173 6.4 14.5 0.00 0.00 0.00 91 1012.5
20260507074006 23 198 4.8 17.7 0.00 0.00 0.00 91 1012.4
20260507073507 23 221 6.4 17.7 0.00 0.00 0.00 91 1012.5
20260507073024 23 174 4.8 16.1 0.00 0.00 0.00 91 1012.6
20260507072509 23 204 8.0 14.5 0.00 0.00 0.00 91 1012.7
20260507072011 23 200 1.6 12.9 0.00 0.00 0.00 91 1012.9
20260507071525 23 286 1.6 11.3 0.00 0.00 0.00 91 1012.9
20260507071004 22 319 1.6 11.3 0.00 0.00 0.00 91 1013.1
20260507070504 22 139 3.2 9.7 0.00 0.00 0.00 91 1013.1
20260507070016 22 175 3.2 9.7 0.00 0.00 0.00 91 1013.1
20260507065503 22 190 3.2 11.3 0.00 0.00 0.00 91 1013.0
20260507065004 22 190 4.8 17.7 0.00 0.00 0.00 91 1012.9
20260507064521 22 191 8.0 16.1 0.00 0.00 0.00 92 1012.8
20260507064007 22 209 3.2 14.5 0.00 0.00 0.00 92 1012.6
20260507063508 22 169 8.0 19.3 0.00 0.00 0.00 92 1012.6
20260507063028 22 150 8.0 19.3 0.00 0.00 0.00 92 1012.7
20260507062509 22 207 11.3 17.7 0.00 0.00 0.00 92 1012.9
20260507062011 22 159 9.7 17.7 0.00 0.00 0.00 92 1013.1
20260507061526 22 204 4.8 19.3 0.00 0.00 0.00 92 1013.1
20260507061009 22 171 9.7 32.2 0.00 0.00 0.00 92 1013.1
20260507060509 22 148 12.9 32.2 0.00 0.00 0.00 92 1012.9
20260507060015 22 158 11.3 30.6 0.00 0.00 0.00 92 1013.0
20260507055503 22 155 12.9 30.6 0.00 0.00 0.00 92 1012.9
20260507055004 22 168 14.5 30.6 0.00 0.00 0.00 92 1013.0
20260507054519 22 153 16.1 25.7 0.00 0.00 0.00 92 1012.9
20260507054004 22 175 12.9 25.7 0.00 0.00 0.00 91 1013.0
20260507053505 22 155 12.9 20.9 0.00 0.00 0.00 91 1013.3
20260507053024 22 198 8.0 14.5 0.00 0.00 0.00 91 1013.5
20260507052512 22 180 6.4 19.3 0.00 0.00 0.00 91 1013.4
20260507052008 22 200 8.0 20.9 0.00 0.00 0.00 91 1013.5
20260507051537 22 160 8.0 20.9 0.00 0.00 0.00 91 1013.4
20260507051009 22 172 12.9 20.9 0.00 0.00 0.00 91 1013.3
20260507050506 22 154 11.3 19.3 0.00 0.00 0.00 91 1013.3
20260507050028 22 182 8.0 16.1 0.00 0.00 0.00 91 1013.5
20260507045510 22 157 6.4 16.1 0.00 0.00 0.00 91 1013.7
20260507045004 22 204 6.4 16.1 0.00 0.00 0.00 91 1013.8
20260507044517 22 166 6.4 16.1 0.00 0.00 0.00 90 1013.7
20260507044006 22 199 6.4 16.1 0.00 0.00 0.00 90 1013.9
20260507043506 22 182 8.0 16.1 0.00 0.00 0.00 90 1013.9
20260507043022 22 200 8.0 12.9 0.00 0.00 0.00 90 1014.0
20260507042506 22 208 4.8 16.1 0.00 0.00 0.00 90 1014.1
20260507042007 22 174 9.7 22.5 0.00 0.00 0.00 90 1014.0
20260507041525 22 182 8.0 22.5 0.00 0.00 0.00 89 1014.1
20260507041008 22 196 8.0 22.5 0.00 0.00 0.00 89 1014.0
20260507040509 22 196 11.3 22.5 0.00 0.00 0.00 89 1014.0
20260507040025 22 166 4.8 20.9 0.00 0.00 0.00 89 1014.0
20260507035510 22 175 14.5 20.9 0.00 0.00 0.00 88 1013.9
20260507035010 22 163 11.3 19.3 0.00 0.00 0.00 88 1013.8
20260507034547 22 163 11.3 17.7 0.00 0.00 0.00 88 1013.8
20260507034007 22 168 6.4 19.3 0.00 0.00 0.00 87 1014.0
20260507033504 22 161 9.7 24.1 0.00 0.00 0.00 87 1014.0
20260507033022 22 157 11.3 24.1 0.00 0.00 0.00 86 1014.1
20260507032506 23 180 8.0 16.1 0.00 0.00 0.00 85 1014.1
20260507032006 23 185 8.0 17.7 0.00 0.00 0.00 84 1014.2
20260507031525 23 182 9.7 17.7 0.00 0.00 0.00 84 1014.2
20260507031007 23 174 8.0 14.5 0.00 0.00 0.00 83 1014.4
20260507030506 23 193 8.0 17.7 0.00 0.00 0.00 82 1014.6
20260507030028 23 176 9.7 17.7 0.00 0.00 0.00 81 1014.5
20260507025510 23 169 8.0 14.5 0.00 0.00 0.00 80 1014.4
20260507025009 23 185 8.0 17.7 0.00 0.00 0.00 79 1014.3
20260507024545 23 169 8.0 17.7 0.00 0.00 0.00 78 1014.2
20260507024009 23 204 4.8 16.1 0.00 0.00 0.00 77 1014.2
20260507023508 23 151 6.4 16.1 0.00 0.00 0.00 76 1014.0
20260507023015 23 200 6.4 14.5 0.00 0.00 0.00 75 1013.9
20260507022508 23 186 6.4 14.5 0.00 0.00 0.00 74 1014.1
20260507022004 23 206 8.0 14.5 0.00 0.00 0.00 73 1014.0
20260507021503 23 158 9.7 12.9 0.00 0.00 0.00 73 1013.7
20260507021006 23 199 6.4 11.3 0.00 0.00 0.00 72 1013.8
20260507020503 23 174 4.8 14.5 0.00 0.00 0.00 71 1013.8
20260507020003 23 178 4.8 14.5 0.00 0.00 0.00 71 1013.7
20260507015506 23 171 6.4 11.3 0.00 0.00 0.00 69 1013.7
20260507015004 23 184 8.0 9.7 0.00 0.00 0.00 69 1013.7
20260507014512 23 175 3.2 8.0 0.00 0.00 0.00 68 1014.0
20260507014004 24 198 3.2 6.4 0.00 0.00 0.00 67 1013.8
20260507013509 24 176 1.6 9.7 0.00 0.00 0.00 67 1013.6
20260507013015 24 176 4.8 9.7 0.00 0.00 0.00 67 1013.6
20260507012509 24 170 4.8 11.3 0.00 0.00 0.00 67 1013.6
20260507012007 24 184 3.2 11.3 0.00 0.00 0.00 67 1013.8
20260507011535 24 180 6.4 9.7 0.00 0.00 0.00 67 1014.1
20260507011002 24 180 4.8 8.0 0.00 0.00 0.00 67 1014.2
20260507010503 25 186 3.2 6.4 0.00 0.00 0.00 67 1014.2
20260507010010 25 212 3.2 9.7 0.00 0.00 0.00 67 1014.1
20260507005504 25 193 3.2 9.7 0.00 0.00 0.00 67 1014.0
20260507005003 25 198 3.2 12.9 0.00 0.00 0.00 67 1013.8
20260507004507 25 172 8.0 12.9 0.00 0.00 0.00 68 1013.7
20260507004005 25 202 6.4 9.7 0.00 0.00 0.00 68 1013.8
20260507003505 25 184 4.8 9.7 0.00 0.00 0.00 69 1013.8
20260507003017 25 205 3.2 8.0 0.00 0.00 0.00 69 1014.1
20260507002504 25 202 3.2 8.0 0.00 0.00 0.00 70 1014.1
20260507002007 25 181 3.2 12.9 0.00 0.00 0.00 69 1014.0
20260507001519 26 236 4.8 12.9 0.00 0.00 0.00 70 1014.1
20260507001006 26 193 1.6 12.9 0.00 0.00 0.00 69 1014.1
20260507000508 26 199 3.2 14.5 0.00 0.00 0.00 69 1014.0
20260507000004 26 179 4.8 14.5 0.00 0.00 0.00 69 1013.9
20260506235504 26 254 3.2 17.7 0.00 0.00 0.00 68 1013.8
20260506235003 26 181 6.4 17.7 0.00 0.00 0.00 68 1013.6
20260506234528 26 178 9.7 16.1 0.00 0.00 0.00 67 1013.3
20260506234004 26 205 4.8 16.1 0.00 0.00 0.00 67 1013.4
20260506233505 27 226 9.7 16.1 0.00 0.00 0.00 66 1013.4
20260506233012 27 138 8.0 20.9 0.00 0.00 0.00 66 1013.4
20260506232508 27 190 11.3 22.5 0.00 0.00 0.00 66 1013.4
20260506232007 27 142 9.7 24.1 0.00 0.00 0.00 66 1013.5
20260506231522 27 184 6.4 24.1 0.00 0.00 0.00 65 1013.4
20260506231005 27 268 4.8 19.3 0.00 0.00 0.00 65 1013.4
20260506230506 27 98 3.2 20.9 0.00 0.00 0.00 66 1013.5
20260506230020 28 198 11.3 22.5 0.00 0.00 0.00 65 1013.5
20260506225506 28 194 8.0 25.7 0.00 0.00 0.00 64 1013.5
20260506225003 28 190 11.3 25.7 0.00 0.00 0.00 64 1013.4
20260506224506 28 157 8.0 19.3 0.00 0.00 0.00 63 1013.3
20260506224002 28 238 4.8 19.3 0.00 0.00 0.00 63 1013.2
20260506223503 28 207 8.0 19.3 0.00 0.00 0.00 62 1013.2
20260506223012 28 126 3.2 16.1 0.00 0.00 0.00 62 1013.3
20260506222504 28 225 4.8 25.7 0.00 0.00 0.00 62 1013.3
20260506222004 28 183 11.3 27.4 0.00 0.00 0.00 61 1013.2
20260506221518 28 202 14.5 27.4 0.00 0.00 0.00 61 1013.1
20260506221007 28 246 12.9 25.7 0.00 0.00 0.00 60 1013.1
20260506220507 28 212 6.4 17.7 0.00 0.00 0.00 61 1013.1
20260506220024 28 177 8.0 16.1 0.00 0.00 0.00 60 1013.4
20260506215506 28 196 8.0 19.3 0.00 0.00 0.00 62 1013.6
20260506215008 28 240 11.3 19.3 0.00 0.00 0.00 61 1013.5
20260506214515 28 165 11.3 29.0 0.00 0.00 0.00 61 1013.7
20260506214002 28 206 12.9 29.0 0.00 0.00 0.00 60 1013.7
20260506213503 28 218 4.8 19.3 0.00 0.00 0.00 60 1013.8
20260506213010 28 215 9.7 19.3 0.00 0.00 0.00 60 1013.8
20260506212503 28 175 8.0 19.3 0.00 0.00 0.00 59 1013.6
20260506212003 28 187 11.3 19.3 0.00 0.00 0.00 58 1013.7
20260506211514 28 171 9.7 22.5 0.00 0.00 0.00 57 1014.0
20260506211004 29 140 14.5 22.5 0.00 0.00 0.00 56 1013.8
20260506210507 29 209 9.7 17.7 0.00 0.00 0.00 56 1014.1
20260506210021 29 278 6.4 14.5 0.00 0.00 0.00 56 1014.1
20260506205505 29 170 4.8 14.5 0.00 0.00 0.00 54 1014.1
20260506205005 30 169 8.0 16.1 0.00 0.00 0.00 54 1014.1
20260506204526 30 189 8.0 19.3 0.00 0.00 0.00 53 1014.1
20260506204007 30 210 4.8 20.9 0.00 0.00 0.00 53 1014.2
20260506203503 30 166 4.8 20.9 0.00 0.00 0.00 55 1014.3
20260506203012 30 140 9.7 16.1 0.00 0.00 0.00 53 1014.3
20260506202504 30 152 6.4 22.5 0.00 0.00 0.00 52 1014.3
20260506202004 31 257 3.2 22.5 0.00 0.00 0.00 52 1014.4
20260506201513 31 190 4.8 14.5 0.00 0.00 0.00 52 1014.4
20260506201004 31 204 4.8 14.5 0.00 0.00 0.00 51 1014.4
20260506200503 30 229 3.2 11.3 0.00 0.00 0.00 52 1014.4
20260506200018 30 122 0.0 14.5 0.00 0.00 0.00 54 1014.5
20260506195504 30 192 8.0 14.5 0.00 0.00 0.00 51 1014.8
20260506195004 30 171 8.0 14.5 0.00 0.00 0.00 52 1014.9
20260506194524 30 218 8.0 14.5 0.00 0.00 0.00 51 1015.0
20260506194012 30 192 6.4 16.1 0.00 0.00 0.00 53 1015.0
20260506193509 30 207 6.4 16.1 0.00 0.00 0.00 50 1015.1
20260506193031 30 276 3.2 11.3 0.00 0.00 0.00 52 1015.3
20260506192503 30 228 3.2 12.9 0.00 0.00 0.00 51 1015.3
20260506192003 30 281 4.8 16.1 0.00 0.00 0.00 51 1015.3
20260506191511 30 226 9.7 16.1 0.00 0.00 0.00 49 1015.4
20260506191004 30 196 3.2 12.9 0.00 0.00 0.00 50 1015.5
20260506190508 30 145 3.2 11.3 0.00 0.00 0.00 50 1015.6
20260506190016 30 234 4.8 11.3 0.00 0.00 0.00 51 1015.7
20260506185504 30 160 6.4 11.3 0.00 0.00 0.00 52 1015.7
20260506185011 30 19 3.2 6.4 0.00 0.00 0.00 51 1015.7
20260506184526 30 259 4.8 11.3 0.00 0.00 0.00 53 1015.8
20260506184008 30 188 6.4 16.1 0.00 0.00 0.00 53 1015.9
20260506183508 30 264 1.6 16.1 0.00 0.00 0.00 55 1015.9
20260506183025 30 272 4.8 14.5 0.00 0.00 0.00 54 1016.0
20260506182506 30 166 4.8 14.5 0.00 0.00 0.00 54 1016.0
20260506182007 29 122 4.8 11.3 0.00 0.00 0.00 53 1016.1
20260506181510 29 242 3.2 9.7 0.00 0.00 0.00 56 1015.9
20260506181004 29 125 3.2 12.9 0.00 0.00 0.00 54 1016.0
20260506180503 29 224 6.4 12.9 0.00 0.00 0.00 54 1016.1
20260506180014 29 163 1.6 14.5 0.00 0.00 0.00 55 1016.2
20260506175504 29 165 9.7 14.5 0.00 0.00 0.00 55 1016.2
20260506175007 29 223 1.6 12.9 0.00 0.00 0.00 56 1016.2
20260506174521 28 188 6.4 16.1 0.00 0.00 0.00 56 1016.2
20260506174010 28 304 1.6 16.1 0.00 0.00 0.00 59 1016.3
20260506173503 28 163 4.8 9.7 0.00 0.00 0.00 59 1016.3
20260506173006 28 254 3.2 9.7 0.00 0.00 0.00 60 1016.4
20260506172503 28 9 1.6 12.9 0.00 0.00 0.00 61 1016.4
20260506172003 28 295 1.6 14.5 0.00 0.00 0.00 60 1016.5
20260506171509 28 288 6.4 14.5 0.00 0.00 0.00 59 1016.5
20260506171002 28 281 3.2 12.9 0.00 0.00 0.00 59 1016.6
20260506170505 28 279 4.8 12.9 0.00 0.00 0.00 59 1016.7
20260506170014 28 241 6.4 14.5 0.00 0.00 0.00 58 1016.7
20260506165503 28 209 6.4 14.5 0.00 0.00 0.00 56 1016.8
20260506165005 28 222 3.2 12.9 0.00 0.00 0.00 58 1016.8
20260506164524 27 304 3.2 11.3 0.00 0.00 0.00 58 1016.8
20260506164004 27 178 4.8 12.9 0.00 0.00 0.00 58 1016.8
20260506163510 27 322 6.4 12.9 0.00 0.00 0.00 60 1016.8
20260506163024 27 319 3.2 9.7 0.00 0.00 0.00 61 1016.9
20260506162507 27 277 4.8 9.7 0.00 0.00 0.00 63 1016.9
20260506162006 27 248 4.8 11.3 0.00 0.00 0.00 61 1016.8
20260506161506 27 259 6.4 14.5 0.00 0.00 0.00 65 1016.9
20260506161007 27 283 4.8 14.5 0.00 0.00 0.00 62 1016.8
20260506160502 27 202 6.4 14.5 0.00 0.00 0.00 61 1016.8
20260506160011 27 128 3.2 11.3 0.00 0.00 0.00 64 1016.8
20260506155503 27 5 1.6 11.3 0.00 0.00 0.00 66 1016.7
20260506155003 26 264 6.4 12.9 0.00 0.00 0.00 66 1016.8
20260506154516 26 306 8.0 12.9 0.00 0.00 0.00 65 1016.8
20260506154007 26 299 6.4 12.9 0.00 0.00 0.00 67 1016.7
20260506153507 26 221 4.8 14.5 0.00 0.00 0.00 68 1016.6
20260506153032 26 178 8.0 17.7 0.00 0.00 0.00 69 1016.5
20260506152506 26 254 11.3 17.7 0.00 0.00 0.00 69 1016.5
20260506152010 26 265 3.2 12.9 0.00 0.00 0.00 72 1016.5
20260506151503 26 158 1.6 12.9 0.00 0.00 0.00 73 1016.6
20260506151002 25 292 3.2 9.7 0.00 0.00 0.00 76 1016.5
20260506150504 25 233 0.0 12.9 0.00 0.00 0.00 75 1016.5
20260506150010 25 227 4.8 14.5 0.00 0.00 0.00 74 1016.5
20260506145504 25 190 8.0 14.5 0.00 0.00 0.00 74 1016.4
20260506145003 25 217 1.6 17.7 0.00 0.00 0.00 76 1016.3
20260506144535 25 149 11.3 17.7 0.00 0.00 0.00 75 1016.2
20260506144007 25 190 4.8 16.1 0.00 0.00 0.00 76 1016.2
20260506143504 25 144 3.2 11.3 0.00 0.00 0.00 79 1016.1
20260506143022 24 211 0.0 11.3 0.00 0.00 0.00 81 1016.1
20260506142505 24 178 6.4 25.7 0.00 0.00 0.00 80 1015.9
20260506142005 23 225 1.6 25.7 0.00 0.00 0.00 81 1015.9
20260506141526 23 138 9.7 17.7 0.00 0.00 0.00 81 1015.9
20260506141006 23 155 1.6 9.7 0.00 0.00 0.00 83 1015.9
20260506140503 23 217 1.6 9.7 0.00 0.00 0.00 82 1015.9
20260506140008 23 282 0.0 14.5 0.00 0.00 0.00 83 1015.8
20260506135504 23 193 8.0 16.1 0.00 0.00 0.00 83 1015.8
20260506135004 23 174 8.0 16.1 0.00 0.00 0.00 84 1015.8
20260506134513 22 207 6.4 17.7 0.00 0.00 0.00 85 1015.7
20260506134004 22 194 11.3 19.3 0.00 0.00 0.00 85 1015.7
20260506133504 22 198 8.0 19.3 0.00 0.00 0.00 86 1015.7
20260506133020 22 136 6.4 12.9 0.00 0.00 0.00 88 1015.7
20260506132505 22 167 3.2 12.9 0.00 0.00 0.00 88 1015.7
20260506132006 22 194 1.6 12.9 0.00 0.00 0.00 88 1015.8
20260506131533 22 198 3.2 12.9 0.00 0.00 0.00 88 1015.7
20260506131007 21 193 4.8 14.5 0.00 0.00 0.00 88 1015.7
20260506130510 21 175 6.4 14.5 0.00 0.00 0.00 88 1015.7
20260506130007 21 168 8.0 12.9 0.00 0.00 0.00 89 1015.7
20260506125504 21 196 4.8 11.3 0.00 0.00 0.00 91 1015.7
20260506125003 21 181 3.2 14.5 0.00 0.00 0.00 92 1015.7
20260506124512 21 191 3.2 14.5 0.00 0.00 0.00 92 1015.5
20260506124003 21 165 8.0 14.5 0.00 0.00 0.00 93 1015.3
20260506123504 21 178 8.0 11.3 0.00 0.00 0.00 93 1015.2
20260506123028 21 152 6.4 14.5 0.00 0.00 0.00 94 1015.2
20260506122505 20 170 6.4 14.5 0.00 0.00 0.00 94 1015.1
20260506122012 20 151 6.4 14.5 0.00 0.00 0.00 94 1014.9
20260506121522 20 176 6.4 12.9 0.00 0.00 0.00 94 1014.7
20260506121005 20 178 4.8 14.5 0.00 0.00 0.00 94 1014.7
20260506120507 20 161 8.0 16.1 0.00 0.00 0.00 95 1014.5
20260506120032 20 200 6.4 16.1 0.00 0.00 0.00 95 1014.3
20260506115514 20 203 6.4 12.9 0.00 0.00 0.00 95 1014.2
20260506115003 20 169 4.8 9.7 0.00 0.00 0.00 95 1014.2
20260506114518 20 172 3.2 11.3 0.00 0.00 0.00 95 1014.1
20260506114007 20 174 3.2 11.3 0.00 0.00 0.00 95 1014.1
20260506113504 20 178 6.4 11.3 0.00 0.00 0.00 96 1014.1
20260506113014 20 175 3.2 16.1 0.00 0.00 0.00 96 1014.1
20260506112503 20 161 6.4 16.1 0.00 0.00 0.00 96 1014.1
20260506112008 20 168 6.4 9.7 0.00 0.00 0.00 96 1014.1
20260506111522 20 161 6.4 12.9 0.00 0.00 0.00 96 1014.0
20260506111013 20 191 8.0 12.9 0.00 0.00 0.00 96 1014.0
20260506110513 20 180 6.4 12.9 0.00 0.00 0.00 96 1013.9
20260506110037 20 173 6.4 12.9 0.00 0.00 0.00 96 1013.8
20260506105506 20 182 4.8 16.1 0.00 0.00 0.00 96 1013.7
20260506105008 20 192 8.0 16.1 0.00 0.00 0.00 96 1013.6
20260506104507 20 174 6.4 16.1 0.00 0.00 0.00 96 1013.5
20260506104003 20 190 8.0 17.7 0.00 0.00 0.00 96 1013.6
20260506103503 20 171 9.7 19.3 0.00 0.00 0.00 96 1013.6
20260506103005 20 159 8.0 19.3 0.00 0.00 0.00 96 1013.5
20260506102503 20 175 4.8 16.1 0.00 0.00 0.00 96 1013.5
20260506102003 20 165 6.4 16.1 0.00 0.00 0.00 96 1013.6
20260506101504 20 173 9.7 16.1 0.00 0.00 0.00 96 1013.5
20260506101003 20 211 8.0 12.9 0.00 0.00 0.00 96 1013.5
20260506100504 20 143 4.8 16.1 0.00 0.00 0.00 96 1013.5
20260506100015 20 169 8.0 16.1 0.00 0.00 0.00 96 1013.5
20260506095503 20 181 8.0 16.1 0.00 0.00 0.00 96 1013.5
20260506095003 20 179 9.7 16.1 0.00 0.00 0.00 96 1013.5
20260506094506 20 179 4.8 14.5 0.00 0.00 0.00 96 1013.6
20260506094002 20 167 6.4 11.3 0.00 0.00 0.00 96 1013.6
20260506093503 20 171 4.8 9.7 0.00 0.00 0.00 96 1013.7
20260506093007 20 167 4.8 8.0 0.00 0.00 0.00 96 1013.7